Tracking 30995 objects as of 5-Jul-2025
HD Live streaming from Space Station
objects crossing your sky now

GAOFEN 3 DEB

Track GAOFEN 3 DEB now!
10-day predictions


NORAD ID: 42679
Int'l Code: 2016-049D
Perigee: 740.0 km
Apogee: 748.9 km
Inclination: 98.3 °
Period: 99.6 minutes
Semi major axis: 7115 km
RCS: Unknown
Launch date: August 9, 2016
Source: People's Republic of China (PRC)
Launch site: Jiuquan Satellite Launch Center, China (JSC)

Note: This is SATELLITE DEBRIS
Your satellite tracking list
SL-12 R/B(2)
Track 1 satellite(s)




NASA's NSSDC Master Catalog

Two Line Element Set (TLE):
1 42679U 16049D   25185.26492264  .00000155  00000-0  55090-4 0  9998
2 42679  98.3257 197.7944 0006254 345.3366  14.7644 14.46441684469537
Source of the keplerian elements: AFSPC